Time,TemperatureF,DewpointF,PressureIn,WindDirection,WindDirectionDegrees,WindSpeedMPH,WindSpeedGustMPH,Humidity,HourlyPrecipIn,Conditions,Clouds,dailyrainin,SoftwareType,DateUTC
2013-03-04 06:32:00,44.0,0.0,29.99,NNW,330,8.0,10.0,53,-99.99,,,-99.99,,2013-03-04 14:32:00,
2013-03-04 06:36:00,45.0,0.0,30.00,NNW,327,7.0,9.0,54,-99.99,,,-99.99,,2013-03-04 14:36:00,
2013-03-04 06:40:00,46.0,0.0,30.00,NW,325,5.0,8.0,49,-99.99,,,-99.99,,2013-03-04 14:40:00,
2013-03-04 06:48:00,47.0,0.0,30.00,NNW,327,7.0,9.0,48,-99.99,,,-99.99,,2013-03-04 14:48:00,
2013-03-04 06:56:00,47.0,0.0,30.01,NNW,327,0.0,7.0,45,-99.99,,,-99.99,,2013-03-04 14:56:00,
2013-03-04 07:04:00,48.0,0.0,30.01,NW,311,5.0,9.0,45,-99.99,,,-99.99,,2013-03-04 15:04:00,
2013-03-04 07:12:00,48.0,0.0,30.02,NW,313,5.0,8.0,45,-99.99,,,-99.99,,2013-03-04 15:12:00,
2013-03-04 07:20:00,49.0,0.0,30.02,NW,310,5.0,7.0,45,-99.99,,,-99.99,,2013-03-04 15:20:00,
2013-03-04 07:24:00,50.0,0.0,30.02,WNW,299,3.0,7.0,47,-99.99,,,-99.99,,2013-03-04 15:24:00,
2013-03-04 07:32:00,51.0,0.0,30.02,NW,308,6.0,7.0,45,-99.99,,,-99.99,,2013-03-04 15:32:00,
2013-03-04 07:40:00,51.0,0.0,30.03,NW,315,3.0,7.0,43,-99.99,,,-99.99,,2013-03-04 15:40:00,
2013-03-04 07:48:00,54.0,0.0,30.03,NW,320,5.0,5.0,38,-99.99,,,-99.99,,2013-03-04 15:48:00,
2013-03-04 07:56:00,55.0,0.0,30.03,NW,321,5.0,5.0,37,-99.99,,,-99.99,,2013-03-04 15:56:00,
2013-03-04 08:04:00,57.0,0.0,30.03,NW,311,2.0,6.0,35,-99.99,,,-99.99,,2013-03-04 16:04:00,
2013-03-04 08:12:00,59.0,0.0,30.04,NNW,327,3.0,6.0,33,-99.99,,,-99.99,,2013-03-04 16:12:00,
2013-03-04 08:20:00,60.0,0.0,30.04,NW,319,5.0,6.0,36,-99.99,,,-99.99,,2013-03-04 16:20:00,
2013-03-04 08:28:00,61.0,0.0,30.04,NNW,330,3.0,5.0,34,-99.99,,,-99.99,,2013-03-04 16:28:00,
2013-03-04 08:36:00,62.0,0.0,30.04,NNW,331,2.0,6.0,30,-99.99,,,-99.99,,2013-03-04 16:36:00,
2013-03-04 08:44:00,63.0,0.0,30.04,NNW,327,2.0,3.0,29,-99.99,,,-99.99,,2013-03-04 16:44:00,
2013-03-04 08:52:00,63.0,0.0,30.04,NNW,333,1.0,2.0,30,-99.99,,,-99.99,,2013-03-04 16:52:00,
2013-03-04 09:00:00,64.0,0.0,30.04,NNW,333,1.0,2.0,31,-99.99,,,-99.99,,2013-03-04 17:00:00,
2013-03-04 09:08:00,63.0,0.0,30.04,NNW,341,0.0,2.0,29,-99.99,,,-99.99,,2013-03-04 17:08:00,
2013-03-04 09:16:00,63.0,0.0,30.04,NNW,337,0.0,2.0,30,-99.99,,,-99.99,,2013-03-04 17:16:00,
2013-03-04 09:24:00,64.0,0.0,30.04,NNW,339,1.0,3.0,31,-99.99,,,-99.99,,2013-03-04 17:24:00,
2013-03-04 09:32:00,64.0,0.0,30.04,SSW,195,7.0,7.0,31,-99.99,,,-99.99,,2013-03-04 17:32:00,
2013-03-04 09:40:00,64.0,0.0,30.04,East,96,10.0,15.0,27,-99.99,,,-99.99,,2013-03-04 17:40:00,
2013-03-04 09:48:00,62.0,0.0,30.04,South,185,0.0,9.0,32,-99.99,,,-99.99,,2013-03-04 17:48:00,
2013-03-04 09:56:00,62.0,0.0,30.04,WSW,237,5.0,10.0,29,-99.99,,,-99.99,,2013-03-04 17:56:00,
2013-03-04 10:04:00,64.0,0.0,30.04,WSW,243,5.0,12.0,28,-99.99,,,-99.99,,2013-03-04 18:04:00,
2013-03-04 10:12:00,64.0,0.0,30.04,WSW,243,0.0,3.0,29,-99.99,,,-99.99,,2013-03-04 18:12:00,
2013-03-04 10:20:00,65.0,0.0,30.03,SW,228,6.0,9.0,26,-99.99,,,-99.99,,2013-03-04 18:20:00,
2013-03-04 10:28:00,66.0,0.0,30.03,NNE,33,2.0,12.0,28,-99.99,,,-99.99,,2013-03-04 18:28:00,
2013-03-04 10:32:00,66.0,0.0,30.03,South,190,5.0,10.0,30,-99.99,,,-99.99,,2013-03-04 18:32:00,
2013-03-04 10:36:00,65.0,0.0,30.03,SW,235,6.0,9.0,25,-99.99,,,-99.99,,2013-03-04 18:36:00,
2013-03-04 10:40:00,65.0,0.0,30.03,SW,225,6.0,9.0,25,-99.99,,,-99.99,,2013-03-04 18:40:00,
2013-03-04 10:48:00,65.0,0.0,30.03,SSW,207,9.0,12.0,26,-99.99,,,-99.99,,2013-03-04 18:48:00,
2013-03-04 10:56:00,65.0,0.0,30.03,SSE,157,6.0,7.0,25,-99.99,,,-99.99,,2013-03-04 18:56:00,
2013-03-04 11:04:00,66.0,0.0,30.03,NNW,341,2.0,12.0,26,-99.99,,,-99.99,,2013-03-04 19:04:00,
2013-03-04 11:08:00,67.0,0.0,30.03,NNW,341,1.0,3.0,26,-99.99,,,-99.99,,2013-03-04 19:08:00,
2013-03-04 11:16:00,66.0,0.0,30.03,North,6,0.0,8.0,24,-99.99,,,-99.99,,2013-03-04 19:16:00,
2013-03-04 11:24:00,66.0,0.0,30.03,SW,233,0.0,7.0,24,-99.99,,,-99.99,,2013-03-04 19:24:00,
2013-03-04 11:32:00,68.0,0.0,30.02,WSW,243,7.0,7.0,28,-99.99,,,-99.99,,2013-03-04 19:32:00,
2013-03-04 11:40:00,69.0,0.0,30.02,NNW,341,2.0,9.0,22,-99.99,,,-99.99,,2013-03-04 19:40:00,
2013-03-04 11:48:00,69.0,0.0,30.02,South,170,5.0,12.0,21,-99.99,,,-99.99,,2013-03-04 19:48:00,
2013-03-04 11:56:00,67.0,0.0,30.02,East,83,8.0,8.0,20,-99.99,,,-99.99,,2013-03-04 19:56:00,
2013-03-04 12:04:00,68.0,0.0,30.02,NNW,342,1.0,9.0,19,-99.99,,,-99.99,,2013-03-04 20:04:00,
2013-03-04 12:12:00,69.0,0.0,30.02,NNW,341,2.0,13.0,23,-99.99,,,-99.99,,2013-03-04 20:12:00,
2013-03-04 12:20:00,68.0,0.0,30.01,NNW,338,0.0,12.0,21,-99.99,,,-99.99,,2013-03-04 20:20:00,
2013-03-04 12:28:00,70.0,0.0,30.01,NNW,341,2.0,13.0,20,-99.99,,,-99.99,,2013-03-04 20:28:00,
2013-03-04 12:36:00,69.0,0.0,30.01,SW,236,3.0,9.0,19,-99.99,,,-99.99,,2013-03-04 20:36:00,
2013-03-04 12:44:00,70.0,0.0,30.00,NNW,344,1.0,12.0,20,-99.99,,,-99.99,,2013-03-04 20:44:00,
2013-03-04 12:52:00,69.0,0.0,30.00,NNW,338,2.0,12.0,23,-99.99,,,-99.99,,2013-03-04 20:52:00,
2013-03-04 13:00:00,70.0,0.0,30.00,NNW,340,1.0,8.0,18,-99.99,,,-99.99,,2013-03-04 21:00:00,
2013-03-04 13:08:00,70.0,0.0,30.00,NW,324,1.0,6.0,18,-99.99,,,-99.99,,2013-03-04 21:08:00,
2013-03-04 13:16:00,69.0,0.0,29.99,NNW,339,3.0,5.0,19,-99.99,,,-99.99,,2013-03-04 21:16:00,
2013-03-04 13:24:00,71.0,0.0,29.99,South,188,3.0,7.0,19,-99.99,,,-99.99,,2013-03-04 21:24:00,
2013-03-04 13:32:00,70.0,0.0,29.99,SSE,149,6.0,9.0,19,-99.99,,,-99.99,,2013-03-04 21:32:00,
2013-03-04 13:40:00,70.0,0.0,30.00,NNW,339,6.0,9.0,20,-99.99,,,-99.99,,2013-03-04 21:40:00,
2013-03-04 13:48:00,71.0,0.0,29.99,NW,312,7.0,7.0,18,-99.99,,,-99.99,,2013-03-04 21:48:00,
2013-03-04 13:56:00,70.0,0.0,29.99,SSW,193,1.0,1.0,19,-99.99,,,-99.99,,2013-03-04 21:56:00,
2013-03-04 14:04:00,69.0,0.0,29.99,South,188,2.0,10.0,18,-99.99,,,-99.99,,2013-03-04 22:04:00,
2013-03-04 14:12:00,70.0,0.0,29.99,North,0,1.0,10.0,18,-99.99,,,-99.99,,2013-03-04 22:12:00,
2013-03-04 14:20:00,71.0,0.0,29.99,NNW,334,2.0,3.0,19,-99.99,,,-99.99,,2013-03-04 22:20:00,
2013-03-04 14:28:00,70.0,0.0,29.99,NNW,341,1.0,1.0,19,-99.99,,,-99.99,,2013-03-04 22:28:00,
2013-03-04 14:36:00,69.0,0.0,29.99,South,189,5.0,9.0,18,-99.99,,,-99.99,,2013-03-04 22:36:00,
2013-03-04 14:44:00,70.0,0.0,29.99,WNW,292,3.0,6.0,21,-99.99,,,-99.99,,2013-03-04 22:44:00,
2013-03-04 14:52:00,70.0,0.0,29.99,West,279,3.0,5.0,17,-99.99,,,-99.99,,2013-03-04 22:52:00,
2013-03-04 15:00:00,70.0,0.0,29.98,NW,324,0.0,3.0,21,-99.99,,,-99.99,,2013-03-04 23:00:00,
2013-03-04 15:08:00,71.0,0.0,29.98,NW,322,5.0,6.0,19,-99.99,,,-99.99,,2013-03-04 23:08:00,
2013-03-04 15:16:00,70.0,0.0,29.98,NW,309,3.0,5.0,21,-99.99,,,-99.99,,2013-03-04 23:16:00,
2013-03-04 15:24:00,70.0,0.0,29.98,NW,326,2.0,3.0,21,-99.99,,,-99.99,,2013-03-04 23:24:00,
2013-03-04 15:32:00,71.0,0.0,29.98,NNW,327,0.0,6.0,18,-99.99,,,-99.99,,2013-03-04 23:32:00,
2013-03-04 15:40:00,70.0,0.0,29.98,NNW,335,1.0,3.0,17,-99.99,,,-99.99,,2013-03-04 23:40:00,
2013-03-04 15:48:00,70.0,0.0,29.98,NNW,339,0.0,2.0,17,-99.99,,,-99.99,,2013-03-04 23:48:00,
2013-03-04 15:56:00,70.0,0.0,29.98,WSW,238,2.0,3.0,19,-99.99,,,-99.99,,2013-03-04 23:56:00,
2013-03-04 16:04:00,70.0,0.0,29.98,NNW,332,3.0,7.0,19,-99.99,,,-99.99,,2013-03-05 00:04:00,
2013-03-04 16:12:00,70.0,0.0,29.98,NNW,331,3.0,3.0,16,-99.99,,,-99.99,,2013-03-05 00:12:00,
2013-03-04 16:20:00,70.0,0.0,29.98,NW,316,5.0,6.0,18,-99.99,,,-99.99,,2013-03-05 00:20:00,
2013-03-04 16:28:00,70.0,0.0,29.98,NW,311,3.0,3.0,18,-99.99,,,-99.99,,2013-03-05 00:28:00,
2013-03-04 16:36:00,70.0,0.0,29.98,NW,326,0.0,1.0,17,-99.99,,,-99.99,,2013-03-05 00:36:00,
2013-03-04 16:44:00,69.0,0.0,29.98,SW,232,0.0,5.0,20,-99.99,,,-99.99,,2013-03-05 00:44:00,
2013-03-04 16:52:00,69.0,0.0,29.98,NW,315,0.0,0.0,18,-99.99,,,-99.99,,2013-03-05 00:52:00,
2013-03-04 17:00:00,69.0,0.0,29.98,NW,308,2.0,5.0,17,-99.99,,,-99.99,,2013-03-05 01:00:00,
2013-03-04 17:08:00,69.0,0.0,29.98,WNW,289,0.0,2.0,18,-99.99,,,-99.99,,2013-03-05 01:08:00,
2013-03-04 17:16:00,69.0,0.0,29.98,NW,319,1.0,3.0,18,-99.99,,,-99.99,,2013-03-05 01:16:00,
2013-03-04 17:24:00,69.0,0.0,29.99,NW,323,2.0,3.0,20,-99.99,,,-99.99,,2013-03-05 01:24:00,
2013-03-04 17:32:00,69.0,0.0,29.99,NW,321,2.0,3.0,15,-99.99,,,-99.99,,2013-03-05 01:32:00,
2013-03-04 17:40:00,68.0,0.0,29.99,NW,322,0.0,0.0,16,-99.99,,,-99.99,,2013-03-05 01:40:00,
2013-03-04 17:48:00,68.0,0.0,29.99,NW,322,0.0,0.0,16,-99.99,,,-99.99,,2013-03-05 01:48:00,
2013-03-04 17:56:00,67.0,0.0,30.00,NW,322,0.0,0.0,19,-99.99,,,-99.99,,2013-03-05 01:56:00,
2013-03-04 18:04:00,66.0,0.0,30.00,NW,322,0.0,0.0,19,-99.99,,,-99.99,,2013-03-05 02:04:00,
2013-03-04 18:12:00,66.0,0.0,30.00,NW,322,0.0,0.0,17,-99.99,,,-99.99,,2013-03-05 02:12:00,
2013-03-04 18:20:00,65.0,0.0,30.01,NW,321,0.0,0.0,17,-99.99,,,-99.99,,2013-03-05 02:20:00,
2013-03-04 18:28:00,64.0,0.0,30.01,NW,321,2.0,2.0,18,-99.99,,,-99.99,,2013-03-05 02:28:00,
2013-03-04 18:36:00,63.0,0.0,30.01,NW,323,5.0,7.0,22,-99.99,,,-99.99,,2013-03-05 02:36:00,
2013-03-04 18:44:00,62.0,0.0,30.02,NW,321,7.0,8.0,17,-99.99,,,-99.99,,2013-03-05 02:44:00,
2013-03-04 18:52:00,61.0,0.0,30.02,NW,322,8.0,9.0,18,-99.99,,,-99.99,,2013-03-05 02:52:00,
2013-03-04 19:00:00,61.0,0.0,30.02,NW,313,8.0,9.0,19,-99.99,,,-99.99,,2013-03-05 03:00:00,
2013-03-04 19:08:00,60.0,0.0,30.03,NW,319,7.0,8.0,22,-99.99,,,-99.99,,2013-03-05 03:08:00,
2013-03-04 19:16:00,59.0,0.0,30.03,NW,315,7.0,8.0,21,-99.99,,,-99.99,,2013-03-05 03:16:00,
2013-03-04 19:24:00,59.0,0.0,30.03,NW,322,7.0,8.0,25,-99.99,,,-99.99,,2013-03-05 03:24:00,
2013-03-04 19:32:00,59.0,0.0,30.03,NW,324,7.0,9.0,22,-99.99,,,-99.99,,2013-03-05 03:32:00,
2013-03-04 19:40:00,59.0,0.0,30.03,NW,315,9.0,9.0,23,-99.99,,,-99.99,,2013-03-05 03:40:00,
2013-03-04 19:48:00,60.0,0.0,30.03,NW,317,8.0,9.0,27,-99.99,,,-99.99,,2013-03-05 03:48:00,
2013-03-04 19:56:00,59.0,0.0,30.03,NW,322,8.0,8.0,27,-99.99,,,-99.99,,2013-03-05 03:56:00,
2013-03-04 20:04:00,58.0,0.0,30.03,NW,317,3.0,8.0,27,-99.99,,,-99.99,,2013-03-05 04:04:00,
2013-03-04 20:12:00,58.0,0.0,30.03,NW,319,7.0,7.0,27,-99.99,,,-99.99,,2013-03-05 04:12:00,
2013-03-04 20:20:00,58.0,0.0,30.03,NW,321,7.0,8.0,25,-99.99,,,-99.99,,2013-03-05 04:20:00,
2013-03-04 20:28:00,57.0,0.0,30.03,NW,323,6.0,6.0,28,-99.99,,,-99.99,,2013-03-05 04:28:00,
2013-03-04 20:36:00,57.0,0.0,30.03,NW,319,5.0,6.0,26,-99.99,,,-99.99,,2013-03-05 04:36:00,
2013-03-04 20:44:00,56.0,0.0,30.03,NW,319,2.0,3.0,28,-99.99,,,-99.99,,2013-03-05 04:44:00,
2013-03-04 20:52:00,56.0,0.0,30.03,NW,314,6.0,7.0,28,-99.99,,,-99.99,,2013-03-05 04:52:00,
2013-03-04 21:00:00,55.0,0.0,30.03,NW,318,5.0,6.0,29,-99.99,,,-99.99,,2013-03-05 05:00:00,
2013-03-04 21:04:00,55.0,0.0,30.03,NW,318,3.0,5.0,27,-99.99,,,-99.99,,2013-03-05 05:04:00,
2013-03-04 21:08:00,54.0,0.0,30.03,NW,316,0.0,3.0,29,-99.99,,,-99.99,,2013-03-05 05:08:00,
2013-03-04 21:16:00,55.0,0.0,30.04,WSW,255,0.0,0.0,30,-99.99,,,-99.99,,2013-03-05 05:16:00,
2013-03-04 21:20:00,56.0,0.0,30.04,NW,312,3.0,5.0,28,-99.99,,,-99.99,,2013-03-05 05:20:00,
2013-03-04 21:28:00,57.0,0.0,30.04,NW,310,5.0,6.0,28,-99.99,,,-99.99,,2013-03-05 05:28:00,
2013-03-04 21:36:00,56.0,0.0,30.04,NW,315,7.0,7.0,27,-99.99,,,-99.99,,2013-03-05 05:36:00,
2013-03-04 21:44:00,55.0,0.0,30.04,NW,318,7.0,9.0,29,-99.99,,,-99.99,,2013-03-05 05:44:00,
2013-03-04 21:52:00,55.0,0.0,30.04,NW,321,6.0,7.0,28,-99.99,,,-99.99,,2013-03-05 05:52:00,
2013-03-04 22:00:00,54.0,0.0,30.04,NW,324,5.0,7.0,33,-99.99,,,-99.99,,2013-03-05 06:00:00,
2013-03-04 22:08:00,53.0,0.0,30.04,NW,324,6.0,7.0,32,-99.99,,,-99.99,,2013-03-05 06:08:00,
2013-03-04 22:16:00,53.0,0.0,30.05,NW,323,5.0,6.0,31,-99.99,,,-99.99,,2013-03-05 06:16:00,
2013-03-04 22:24:00,52.0,0.0,30.04,NW,312,6.0,7.0,31,-99.99,,,-99.99,,2013-03-05 06:24:00,
2013-03-04 22:32:00,52.0,0.0,30.04,NW,315,5.0,6.0,32,-99.99,,,-99.99,,2013-03-05 06:32:00,
2013-03-04 22:40:00,51.0,0.0,30.04,NW,321,5.0,6.0,32,-99.99,,,-99.99,,2013-03-05 06:40:00,
2013-03-04 22:48:00,50.0,0.0,30.04,NW,326,5.0,5.0,31,-99.99,,,-99.99,,2013-03-05 06:48:00,
2013-03-04 22:56:00,50.0,0.0,30.04,NW,323,5.0,6.0,31,-99.99,,,-99.99,,2013-03-05 06:56:00,
2013-03-04 23:04:00,50.0,0.0,30.04,NW,324,5.0,6.0,31,-99.99,,,-99.99,,2013-03-05 07:04:00,
2013-03-04 23:12:00,50.0,0.0,30.04,NW,322,5.0,6.0,31,-99.99,,,-99.99,,2013-03-05 07:12:00,
2013-03-04 23:20:00,49.0,0.0,30.04,NW,322,2.0,7.0,33,-99.99,,,-99.99,,2013-03-05 07:20:00,
2013-03-04 23:28:00,49.0,0.0,30.04,NW,321,6.0,7.0,32,-99.99,,,-99.99,,2013-03-05 07:28:00,
2013-03-04 23:36:00,48.0,0.0,30.04,NW,323,5.0,6.0,33,-99.99,,,-99.99,,2013-03-05 07:36:00,
2013-03-04 23:44:00,48.0,0.0,30.04,NW,324,5.0,6.0,35,-99.99,,,-99.99,,2013-03-05 07:44:00,
2013-03-04 23:52:00,48.0,0.0,30.04,NW,319,6.0,7.0,35,-99.99,,,-99.99,,2013-03-05 07:52:00,